Boulder City, NV

8:41 AM PST on November 12, 2019 (GMT -0800)
Boulder City

Weather History for KBVU - September, 2019

Change the Weather History Date:

Tuesday, September 17, 2019

  Actual Average (WUND) Record (WUND)
Temperature  
Mean Temperature 78 °F -  
Max Temperature 89 °F - - (-1)
Min Temperature 66 °F - - (-1)
Cooling Degree Days 14    
Growing Degree Days 28 (Base 50)    
Moisture  
Dew Point 26 °F    
Average Humidity 16    
Maximum Humidity 30    
Minimum Humidity 5    
Precipitation  
Precipitation 0.00 in - - ()
Sea Level Pressure  
Sea Level Pressure 29.90 in    
Wind  
Wind Speed 11 mph ()    
Max Wind Speed 24 mph    
Max Gust Speed 30 mph    
Visibility 10.0 miles    
Events      
Averages and records for this station are not official NWS values.
T = Trace of Precipitation, MM = Missing Value Source: Averaged Metar Reports

Daily Weather History Graph

Daily Weather History Graph

Search for Another Location

Airport or City:

Astronomy

Sep. 17, 2019 Rise Set
Actual Time 6:23 AM PDT 6:43 PM PDT
Civil Twilight 5:57 AM PDT 7:09 PM PDT
Nautical Twilight 5:27 AM PDT 7:39 PM PDT
Astronomical Twilight 4:57 AM PDT 8:10 PM PDT
Moon 8:55 PM PDT (9/17) 9:26 AM PDT (9/17)
Length of Visible Light 13h 11m
Length of Day
12h 20m
Waning Gibbous, 88% of the Moon is Illuminated
Sep 17
Waning Gibbous
Sep 21
Last Quarter
Sep 28
New
Oct 5
First Quarter
Oct 13
Full

Hourly Weather History & Observations

Time (PDT) Temp. Dew Point Humidity Pressure Visibility Wind Dir Wind Speed Gust Speed Precip Events Conditions
12:35 AM 80.6 °F 28.4 °F 15% 29.80 in 10.0 mi SW 20.7 mph 26.5 mph N/A   Clear
12:55 AM 78.8 °F 26.6 °F 15% 29.80 in 10.0 mi SW 21.9 mph - N/A   Clear
1:15 AM 78.8 °F 26.6 °F 15% 29.79 in 10.0 mi WSW 24.2 mph 29.9 mph N/A   Clear
1:35 AM 78.8 °F 28.4 °F 16% 29.80 in 10.0 mi WSW 21.9 mph 29.9 mph N/A   Clear
1:55 AM 77.0 °F 28.4 °F 17% 29.82 in 10.0 mi WSW 12.7 mph - N/A   Clear
2:15 AM 77.0 °F 28.4 °F 17% 29.83 in 10.0 mi SW 4.6 mph 12.7 mph N/A   Clear
2:35 AM 75.2 °F 30.2 °F 19% 29.84 in 10.0 mi Variable 4.6 mph 12.7 mph N/A   Clear
2:55 AM 77.0 °F 28.4 °F 17% 29.85 in 10.0 mi Variable 5.8 mph - N/A   Clear
3:15 AM 77.0 °F 26.6 °F 16% 29.85 in 10.0 mi South 6.9 mph - N/A   Partly Cloudy
3:35 AM 75.2 °F 26.6 °F 17% 29.85 in 10.0 mi South 15.0 mph - N/A   Partly Cloudy
3:55 AM 75.2 °F 30.2 °F 19% 29.86 in 10.0 mi SSW 15.0 mph - N/A   Clear
4:15 AM 75.2 °F 30.2 °F 19% 29.86 in 10.0 mi SW 15.0 mph - N/A   Clear
4:35 AM 75.2 °F 30.2 °F 19% 29.87 in 10.0 mi WSW 13.8 mph 20.7 mph N/A   Clear
4:55 AM 71.6 °F 30.2 °F 22% 29.89 in 10.0 mi WSW 8.1 mph - N/A   Clear
5:15 AM 69.8 °F 30.2 °F 23% 29.90 in 10.0 mi SSW 5.8 mph - N/A   Clear
5:35 AM 69.8 °F 33.8 °F 27% 29.91 in 10.0 mi WSW 9.2 mph - N/A   Clear
5:55 AM 69.8 °F 32.0 °F 25% 29.90 in 10.0 mi WSW 12.7 mph - N/A   Clear
6:15 AM 69.8 °F 32.0 °F 25% 29.92 in 10.0 mi WSW 12.7 mph - N/A   Clear
6:35 AM 69.8 °F 32.0 °F 25% 29.93 in 10.0 mi South 11.5 mph - N/A   Clear
6:55 AM 71.6 °F 32.0 °F 23% 29.93 in 10.0 mi SW 15.0 mph - N/A   Clear
7:15 AM 71.6 °F 32.0 °F 23% 29.93 in 10.0 mi WSW 17.3 mph - N/A   Clear
7:35 AM 71.6 °F 32.0 °F 23% 29.95 in 10.0 mi SSW 10.4 mph 17.3 mph N/A   Clear
7:55 AM 73.4 °F 33.8 °F 23% 29.95 in 10.0 mi SW 12.7 mph - N/A   Clear
8:15 AM 75.2 °F 33.8 °F 22% 29.96 in 10.0 mi SW 10.4 mph - N/A   Clear
8:35 AM 77.0 °F 33.8 °F 21% 29.97 in 10.0 mi SW 10.4 mph - N/A   Clear
8:55 AM 77.0 °F 33.8 °F 21% 29.98 in 10.0 mi SSW 8.1 mph - N/A   Clear
9:15 AM 77.0 °F 33.8 °F 21% 29.98 in 10.0 mi SSW 10.4 mph 16.1 mph N/A   Clear
9:35 AM 78.8 °F 32.0 °F 18% 29.99 in 10.0 mi WSW 10.4 mph - N/A   Clear
9:55 AM 78.8 °F 32.0 °F 18% 29.99 in 10.0 mi SSW 10.4 mph - N/A   Clear
10:15 AM 78.8 °F 30.2 °F 17% 29.99 in 10.0 mi South 10.4 mph - N/A   Clear
10:55 AM 80.6 °F 24.8 °F 13% 29.99 in 10.0 mi SSW 8.1 mph - N/A   Clear
11:15 AM 82.4 °F 24.8 °F 12% 29.98 in 10.0 mi SW 13.8 mph - N/A   Clear
11:35 AM 82.4 °F 24.8 °F 12% 29.98 in 10.0 mi SW 10.4 mph - N/A   Clear
11:55 AM 84.2 °F 26.6 °F 12% 29.97 in 10.0 mi WSW 10.4 mph 19.6 mph N/A   Clear
12:15 PM 84.2 °F 26.6 °F 12% 29.97 in 10.0 mi SSW 10.4 mph 18.4 mph N/A   Clear
12:35 PM 84.2 °F 26.6 °F 12% 29.96 in 10.0 mi West 10.4 mph - N/A   Clear
12:55 PM 84.2 °F 24.8 °F 11% 29.95 in 10.0 mi Variable 4.6 mph 16.1 mph N/A   Clear
1:15 PM 86.0 °F 23.0 °F 10% 29.94 in 10.0 mi SW 10.4 mph 17.3 mph N/A   Clear
1:35 PM 86.0 °F 23.0 °F 10% 29.93 in 10.0 mi WSW 5.8 mph 15.0 mph N/A   Clear
1:55 PM 86.0 °F 23.0 °F 10% 29.93 in 10.0 mi SSW 11.5 mph - N/A   Clear
2:15 PM 86.0 °F 23.0 °F 10% 29.91 in 10.0 mi Variable 3.5 mph - N/A   Clear
2:35 PM 87.8 °F 21.2 °F 9% 29.90 in 10.0 mi SSE 9.2 mph - N/A   Clear
2:55 PM 87.8 °F 21.2 °F 9% 29.89 in 10.0 mi Variable 6.9 mph 12.7 mph N/A   Clear
3:15 PM 89.6 °F 19.4 °F 8% 29.89 in 10.0 mi West 12.7 mph - N/A   Clear
3:35 PM 89.6 °F 19.4 °F 8% 29.88 in 10.0 mi SW 12.7 mph 23.0 mph N/A   Clear
3:55 PM 89.6 °F 19.4 °F 8% 29.87 in 10.0 mi WSW 13.8 mph - N/A   Clear
4:15 PM 89.6 °F 19.4 °F 8% 29.86 in 10.0 mi WSW 15.0 mph 23.0 mph N/A   Clear
4:35 PM 89.6 °F 17.6 °F 7% 29.86 in 10.0 mi SW 13.8 mph - N/A   Clear
4:55 PM 89.6 °F 12.2 °F 6% 29.86 in 10.0 mi WSW 13.8 mph 20.7 mph N/A   Clear
5:15 PM 89.6 °F 10.4 °F 5% 29.86 in 10.0 mi SW 15.0 mph - N/A   Clear
5:35 PM 87.8 °F 10.4 °F 6% 29.86 in 10.0 mi SW 11.5 mph - N/A   Clear
5:55 PM 87.8 °F 8.6 °F 5% 29.85 in 10.0 mi WSW 10.4 mph 16.1 mph N/A   Clear
6:15 PM 86.0 °F 8.6 °F 5% 29.85 in 10.0 mi West 8.1 mph - N/A   Clear
6:55 PM 82.4 °F 12.2 °F 7% 29.86 in 10.0 mi WSW 6.9 mph - N/A   Clear
7:15 PM 82.4 °F 14.0 °F 8% 29.86 in 10.0 mi WSW 6.9 mph - N/A   Clear
7:35 PM 78.8 °F 14.0 °F 9% 29.87 in 10.0 mi Calm Calm - N/A   Clear
7:55 PM 77.0 °F 23.0 °F 13% 29.87 in 10.0 mi Calm Calm - N/A   Clear
8:15 PM 78.8 °F 19.4 °F 11% 29.88 in 10.0 mi Calm Calm - N/A   Clear
8:35 PM 75.2 °F 26.6 °F 17% 29.88 in 10.0 mi Calm Calm - N/A   Clear
8:55 PM 75.2 °F 30.2 °F 19% 29.89 in 10.0 mi Calm Calm - N/A   Clear
9:15 PM 73.4 °F 30.2 °F 20% 29.89 in 10.0 mi Calm Calm - N/A   Clear
9:35 PM 71.6 °F 33.8 °F 25% 29.89 in 10.0 mi Calm Calm - N/A   Clear
9:55 PM 71.6 °F 32.0 °F 23% 29.89 in 10.0 mi Calm Calm - N/A   Clear
10:15 PM 71.6 °F 28.4 °F 20% 29.89 in 10.0 mi Calm Calm - N/A   Clear
10:35 PM 69.8 °F 33.8 °F 27% 29.89 in 10.0 mi NE 4.6 mph - N/A   Clear
10:55 PM 71.6 °F 30.2 °F 22% 29.89 in 10.0 mi Calm Calm - N/A   Clear
11:35 PM 68.0 °F 33.8 °F 28% 29.89 in 10.0 mi Calm Calm - N/A   Partly Cloudy
11:55 PM 66.2 °F 33.8 °F 30% 29.89 in 10.0 mi Calm Calm - N/A   Scattered Clouds